| time (UTC) | temp F | wind direction | speed MPH | gust MPH | rain 1hr in | rain 24hr in | rain mn in | humidity % | barometer mb |
| 20260505183030 | 82 | 255 | 4.0 | 11.0 | 0.00 | 0.08 | 0.08 | 38 | 1007.5 |
| 20260505181532 | 81 | 214 | 4.0 | 12.0 | 0.00 | 0.08 | 0.08 | 38 | 1007.6 |
| 20260505180026 | 81 | 217 | 6.0 | 15.0 | 0.00 | 0.08 | 0.08 | 39 | 1007.6 |
| 20260505174535 | 81 | 190 | 3.0 | 7.0 | 0.00 | 0.08 | 0.08 | 42 | 1007.7 |
| 20260505173020 | 80 | 216 | 4.0 | 13.0 | 0.00 | 0.08 | 0.08 | 43 | 1007.9 |
| 20260505171529 | 80 | 202 | 2.0 | 11.0 | 0.00 | 0.08 | 0.08 | 43 | 1007.9 |
| 20260505170016 | 79 | 238 | 3.0 | 9.0 | 0.00 | 0.08 | 0.08 | 44 | 1008.0 |
| 20260505164515 | 78 | 347 | 3.0 | 10.0 | 0.00 | 0.08 | 0.08 | 45 | 1008.4 |
| 20260505163014 | 79 | 233 | 2.0 | 10.0 | 0.00 | 0.08 | 0.08 | 46 | 1008.5 |
| 20260505161510 | 78 | 229 | 1.0 | 10.0 | 0.00 | 0.08 | 0.08 | 47 | 1008.8 |
| 20260505153101 | 75 | 164 | 2.0 | 7.0 | 0.00 | 0.08 | 0.08 | 52 | 1009.3 |
| 20260505151602 | 74 | 280 | 3.0 | 9.0 | 0.00 | 0.08 | 0.08 | 51 | 1009.4 |
| 20260505124519 | 55 | 135 | 0.0 | 0.0 | 0.00 | 0.08 | 0.08 | 95 | 1010.1 |
| 20260505123017 | 54 | 135 | 0.0 | 0.0 | 0.00 | 0.08 | 0.08 | 96 | 1010.1 |
| 20260505121512 | 52 | 135 | 0.0 | 3.0 | 0.08 | 0.08 | 0.08 | 96 | 1010.4 |
| 20260505120008 | 50 | 135 | 0.0 | 0.0 | 0.08 | 0.08 | 0.08 | 95 | 1010.4 |
| 20260505114508 | 48 | 135 | 0.0 | 3.0 | 0.08 | 0.08 | 0.08 | 95 | 1010.0 |
| 20260505113004 | 47 | 133 | 0.0 | 3.0 | 0.08 | 0.08 | 0.08 | 94 | 1009.8 |
| 20260505111504 | 47 | 193 | 0.0 | 1.0 | 0.00 | 0.00 | 0.00 | 94 | 1010.5 |
| 20260505101604 | 44 | 193 | 0.0 | 0.0 | 0.00 | 0.00 | 0.00 | 94 | 1010.0 |
| 20260505100058 | 43 | 193 | 0.0 | 0.0 | 0.00 | 0.00 | 0.00 | 93 | 1009.8 |
| 20260505094557 | 43 | 193 | 0.0 | 0.0 | 0.00 | 0.00 | 0.00 | 93 | 1009.7 |
| 20260505093056 | 44 | 193 | 0.0 | 0.0 | 0.00 | 0.00 | 0.00 | 93 | 1009.6 |
| 20260505091557 | 44 | 193 | 0.0 | 0.0 | 0.00 | 0.00 | 0.00 | 93 | 1009.5 |
| 20260505090057 | 44 | 193 | 0.0 | 0.0 | 0.00 | 0.00 | 0.00 | 93 | 1009.2 |
| 20260505084602 | 44 | 193 | 0.0 | 0.0 | 0.00 | 0.00 | 0.00 | 93 | 1009.2 |
| 20260505083105 | 44 | 193 | 0.0 | 0.0 | 0.00 | 0.00 | 0.00 | 92 | 1009.3 |
| 20260505081550 | 44 | 193 | 0.0 | 0.0 | 0.00 | 0.00 | 0.00 | 92 | 1009.4 |
| 20260505080054 | 45 | 193 | 0.0 | 0.0 | 0.00 | 0.00 | 0.00 | 92 | 1009.4 |
| 20260505074548 | 45 | 193 | 0.0 | 0.0 | 0.00 | 0.00 | 0.00 | 92 | 1009.3 |
| 20260505073055 | 45 | 193 | 0.0 | 0.0 | 0.00 | 0.00 | 0.00 | 92 | 1009.4 |
| 20260505071546 | 45 | 193 | 0.0 | 1.0 | 0.00 | 0.00 | 0.00 | 91 | 1009.4 |
| 20260505070045 | 45 | 193 | 0.0 | 0.0 | 0.00 | 0.00 | 0.00 | 91 | 1009.4 |
| 20260505064610 | 45 | 193 | 0.0 | 0.0 | 0.00 | 0.00 | 0.00 | 91 | 1009.4 |
| 20260505063042 | 45 | 193 | 0.0 | 0.0 | 0.00 | 0.00 | 0.00 | 90 | 1009.7 |
| 20260505061541 | 45 | 193 | 0.0 | 0.0 | 0.00 | 0.00 | 0.00 | 90 | 1009.6 |
| 20260505060038 | 46 | 193 | 0.0 | 0.0 | 0.00 | 0.00 | 0.00 | 89 | 1009.6 |
| 20260505054546 | 46 | 193 | 0.0 | 0.0 | 0.00 | 0.00 | 0.00 | 89 | 1009.8 |
| 20260505053035 | 46 | 193 | 0.0 | 0.0 | 0.00 | 0.00 | 0.00 | 88 | 1009.7 |
| 20260505051533 | 47 | 193 | 0.0 | 0.0 | 0.00 | 0.00 | 0.00 | 88 | 1009.9 |
| 20260505041525 | 48 | 193 | 0.0 | 0.0 | 0.00 | 0.00 | 0.00 | 84 | 1010.1 |
| 20260505040023 | 49 | 193 | 0.0 | 0.0 | 0.00 | 0.00 | 0.00 | 82 | 1010.0 |
| 20260505034526 | 50 | 193 | 0.0 | 0.0 | 0.00 | 0.00 | 0.00 | 81 | 1010.0 |
| 20260505033022 | 50 | 193 | 0.0 | 0.0 | 0.00 | 0.00 | 0.00 | 80 | 1010.0 |
| 20260505031521 | 51 | 193 | 0.0 | 0.0 | 0.00 | 0.00 | 0.00 | 78 | 1010.2 |
| 20260505030037 | 52 | 193 | 0.0 | 0.0 | 0.00 | 0.00 | 0.00 | 76 | 1010.2 |
| 20260505024521 | 52 | 193 | 0.0 | 0.0 | 0.00 | 0.00 | 0.00 | 75 | 1010.2 |
| 20260505023020 | 54 | 193 | 0.0 | 0.0 | 0.00 | 0.00 | 0.00 | 71 | 1010.1 |
| 20260505021522 | 55 | 193 | 0.0 | 0.0 | 0.00 | 0.00 | 0.00 | 68 | 1010.1 |
| 20260505020020 | 56 | 193 | 0.0 | 0.0 | 0.00 | 0.00 | 0.00 | 66 | 1010.1 |
| 20260505014522 | 57 | 193 | 0.0 | 0.0 | 0.00 | 0.00 | 0.00 | 64 | 1009.8 |
| 20260505013020 | 59 | 193 | 0.0 | 0.0 | 0.00 | 0.00 | 0.00 | 61 | 1009.8 |
| 20260505011517 | 61 | 193 | 0.0 | 0.0 | 0.00 | 0.00 | 0.00 | 57 | 1009.6 |
| 20260505010016 | 63 | 193 | 0.0 | 0.0 | 0.00 | 0.00 | 0.00 | 52 | 1009.4 |
| 20260505004529 | 64 | 193 | 0.0 | 0.0 | 0.00 | 0.00 | 0.00 | 47 | 1009.2 |
| 20260505003014 | 66 | 193 | 1.0 | 4.0 | 0.00 | 0.00 | 0.00 | 44 | 1009.0 |
| 20260505001515 | 67 | 193 | 1.0 | 4.0 | 0.00 | 0.00 | 0.00 | 43 | 1008.7 |
| 20260505000016 | 68 | 216 | 1.0 | 4.0 | 0.00 | 0.00 | 0.00 | 41 | 1008.5 |
| 20260504234518 | 68 | 217 | 2.0 | 4.0 | 0.00 | 0.00 | 0.00 | 40 | 1008.2 |
| 20260504233017 | 69 | 259 | 2.0 | 10.0 | 0.00 | 0.00 | 0.00 | 39 | 1007.9 |
| 20260504231511 | 69 | 211 | 3.0 | 9.0 | 0.00 | 0.00 | 0.00 | 38 | 1007.8 |
| 20260504230011 | 70 | 216 | 3.0 | 10.0 | 0.00 | 0.00 | 0.00 | 37 | 1007.7 |
| 20260504224511 | 70 | 231 | 2.0 | 10.0 | 0.00 | 0.00 | 0.00 | 37 | 1007.6 |
| 20260504223011 | 71 | 197 | 2.0 | 9.0 | 0.00 | 0.00 | 0.00 | 36 | 1007.6 |
| 20260504221509 | 71 | 210 | 2.0 | 8.0 | 0.00 | 0.00 | 0.00 | 36 | 1007.7 |
| 20260504220007 | 71 | 272 | 3.0 | 10.0 | 0.00 | 0.00 | 0.00 | 35 | 1007.9 |
| 20260504214505 | 72 | 228 | 3.0 | 10.0 | 0.00 | 0.00 | 0.00 | 34 | 1008.0 |
| 20260504213013 | 72 | 210 | 2.0 | 9.0 | 0.00 | 0.00 | 0.00 | 33 | 1008.0 |
| 20260504211503 | 72 | 212 | 4.0 | 10.0 | 0.00 | 0.00 | 0.00 | 33 | 1008.0 |
| 20260504210002 | 72 | 199 | 3.0 | 12.0 | 0.00 | 0.00 | 0.00 | 33 | 1008.2 |
| 20260504204502 | 71 | 50 | 3.0 | 10.0 | 0.00 | 0.00 | 0.00 | 34 | 1008.1 |
| 20260504203101 | 71 | 220 | 3.0 | 11.0 | 0.00 | 0.00 | 0.00 | 34 | 1008.2 |
| 20260504201607 | 72 | 235 | 3.0 | 9.0 | 0.00 | 0.00 | 0.00 | 32 | 1008.3 |
| 20260504194604 | 72 | 256 | 4.0 | 10.0 | 0.00 | 0.00 | 0.00 | 33 | 1008.7 |
| 20260504193055 | 72 | 210 | 2.0 | 6.0 | 0.00 | 0.00 | 0.00 | 34 | 1008.6 |
| 20260504191610 | 71 | 189 | 4.0 | 10.0 | 0.00 | 0.00 | 0.00 | 33 | 1008.7 |
| 20260504190049 | 71 | 196 | 4.0 | 11.0 | 0.00 | 0.00 | 0.00 | 33 | 1008.9 |
| 20260504184555 | 71 | 216 | 3.0 | 10.0 | 0.00 | 0.00 | 0.00 | 33 | 1009.2 |